Location: Boden
(46.8667°N, 8.5833°E)
Time: 04:41:51
(UTC+00:00)

Daily predictions for brighter satellites

Satellite Brightness Start Highest point End
(mag) Time Altitude Azimuth Time Altitude Azimuth Time Altitude Azimuth
ATLAS CENTAUR R/B 4.3 00:07:49 10° WSW 00:13:48 67° NNW 00:30:22 10° ENE
Cosmos 1825 2.5 00:13:02 43° SE 00:13:53 55° E 00:17:35 10° NNE
DELTA 2 R/B (1) 4.3 00:16:57 30° SSE 00:16:57 30° SSE 00:21:40 10° ESE
Cosmos 540 Rocket 4.1 00:15:11 30° SSE 00:17:11 44° ESE 00:22:02 10° NNE
Cosmos 1408 2.6 00:19:18 52° SW 00:19:59 67° W 00:23:41 10° N
Cosmos 990 Rocket 3.9 00:15:14 10° NNW 00:20:25 71° WSW 00:22:37 34° S
SL-16 R/B 3.2 00:19:56 17° WSW 00:23:51 40° NW 00:29:12 10° NNE
Cosmos 1242 Rocket 3.9 00:21:02 10° N 00:24:21 34° ENE 00:26:09 21° SE
Cosmos 405 Rocket 2.5 00:23:36 54° S 00:24:23 87° E 00:28:05 10° NNE
Cosmos 841 Rocket 4.1 00:23:03 28° SSE 00:25:14 44° ESE 00:30:07 10° NNE
Cosmos 2058 3.2 00:24:22 38° SSE 00:25:42 59° E 00:29:44 10° NNE
Cosmos 1656 Rocket 3.7 00:20:24 10° NNW 00:26:09 80° ENE 00:30:16 19° SSE
Cosmos 2221 2.9 00:22:06 10° N 00:26:21 57° ENE 00:28:24 28° SE
USA 229 DEB 3.6 00:22:35 26° SW 00:26:31 85° NW 00:33:26 10° NE
USA 229 3.6 00:22:43 26° SW 00:26:37 85° NW 00:33:32 10° NE
Meteor 2-13 Rocket 4.4 00:23:59 31° SSW 00:27:08 81° W 00:33:20 10° N
Cosmos 2237 Rocket 4.5 00:23:46 10° W 00:27:32 18° NW 00:31:19 10° N
X-37B 1.1 00:28:47 44° ESE 00:28:47 44° ESE 00:31:09 10° E
Cosmos 1898 Rocket 3.5 00:28:30 10° NNW 00:33:43 69° WSW 00:36:10 31° S
Cosmos 1937 Rocket 3.5 00:28:41 10° NNW 00:34:03 88° ENE 00:37:19 24° SSE
Nadezhda 4 Rocket 4.1 00:30:48 27° S 00:34:16 72° E 00:40:22 10° NNE
NOSS 3-1 (C) 4.0 00:31:11 16° WSW 00:35:25 51° NW 00:41:44 10° NE
Cosmos 2369 Rocket 2.3 00:30:36 10° NNW 00:36:13 58° WSW 00:38:58 30° S
YAOGAN 11 4.1 00:35:34 36° S 00:37:19 73° WSW 00:41:50 10° NNW
Aureole 3 Rocket 4.1 00:34:20 10° N 00:38:05 43° E 00:41:59 15° SSE
Cosmos 1356 4.2 00:37:29 35° WSW 00:38:07 38° WNW 00:41:20 10° N
USA 307 3.9 00:38:07 28° SSE 00:38:41 29° SE 00:42:24 10° ENE
SJ 16-02 3.1 00:36:38 10° NW 00:39:34 18° W 00:40:01 18° WSW
CREW DRAGON DEMO-1 DEB 3.0 00:40:05 50° NNW 00:40:05 50° NNW 00:42:27 10° ENE
USA 215 4.4 00:39:05 10° NE 00:45:12 44° NNW 00:51:18 10° W
NOSS 3-1 (A) 3.5 00:42:41 23° SW 00:46:13 68° NW 00:52:38 10° NE
ATLAS 5 CENTAUR R/B 2.5 00:48:04 25° SSE 00:49:14 30° ESE 00:52:59 10° ENE
Cosmos 2263 4.2 00:44:17 10° NNW 00:49:53 61° WSW 00:53:06 25° S
CZ-4 R/B 3.8 00:46:41 10° N 00:51:20 71° WNW 00:53:33 31° SSW
Helios 1B rocket 3.5 00:48:14 10° NNE 00:52:03 37° E 00:54:08 22° SSE
USA 308 3.6 00:53:27 32° S 00:54:32 38° SE 00:58:29 10° ENE
Cosmos 1814 Rocket 4.4 00:51:51 26° S 00:54:37 54° ESE 00:59:39 10° NNE
Cosmos 1633 3.3 00:53:22 28° SSE 00:54:44 44° E 00:58:08 10° NNE
ADEOS Rocket 4.2 00:48:21 10° SE 00:55:13 48° ENE 01:01:27 10° N
Cosmos 1932 4.4 00:49:14 10° NW 00:55:21 61° WSW 01:00:03 17° SSE
Meteor 2-2 Rocket 4.5 00:50:40 10° NNW 00:56:37 63° W 01:00:06 25° SSW
CZ-3B R/B 4.0 00:48:32 10° WNW 00:57:29 38° N 01:00:37 10° ENE
UNK 4.0 00:54:25 18° SSE 00:57:50 65° ENE 01:02:26 10° N
Helios 1A 3.4 01:00:06 32° SSW 01:01:28 44° W 01:05:31 10° NNW
Cosmos 1606 2.6 00:58:34 10° N 01:02:26 88° E 01:04:12 30° S
Cosmos 1570 Rocket 4.2 01:01:44 26° S 01:04:40 66° ESE 01:09:51 10° NNE
SL-16 R/B 2.5 00:59:52 15° SSE 01:05:07 87° ENE 01:11:21 10° NNW
Cosmos 372 Rocket 3.9 01:03:46 10° NNW 01:09:01 81° WSW 01:13:10 17° SSE
USA 305 3.1 01:10:31 31° SSW 01:12:18 55° SE 01:16:28 10° ENE
USA 290 2.6 01:11:15 35° SSE 01:12:19 54° ESE 01:15:29 10° NNE
CZ-4C R/B 4.2 01:13:12 10° SE 01:15:04 12° ESE 01:17:04 10° E
Cosmos 1092 Rocket 4.0 01:11:05 22° S 01:15:16 87° E 01:21:28 10° N
Lacrosse 4 Rocket 1.5 01:11:12 10° NNW 01:15:18 73° NE 01:19:21 10° SE
Cosmos 2098 Rocket 3.7 01:15:09 25° SSW 01:18:11 56° W 01:22:34 10° N
BREEZE-M R/B 3.0 01:18:12 28° SSW 01:19:40 46° SSE 01:24:32 10° ENE
Cosmos 2208 Rocket 4.2 01:16:33 23° S 01:19:59 73° ESE 01:25:27 10° NNE
USA 267 4.4 01:19:19 20° SW 01:20:19 20° WSW 01:24:59 10° WNW
Meteor 2-19 Rocket 4.4 01:16:27 22° S 01:20:40 86° W 01:26:51 10° N
Resurs 1-4 Rocket 2.1 01:15:34 10° NNE 01:20:55 83° WNW 01:24:24 22° SSW
Cosmos 1437 Rocket 3.9 01:18:01 10° NW 01:21:18 26° W 01:22:18 23° WSW
OE (NEXTSAT) 4.2 01:22:34 21° WSW 01:24:47 76° S 01:28:13 10° E
Meteor 1-29 4.0 01:21:38 10° NNE 01:24:52 39° E 01:26:57 19° SSE
SL-4 R/B 3.1 01:22:49 10° WNW 01:26:21 39° N 01:29:41 10° ENE
Cosmos 1943 Rocket 4.1 01:27:12 10° W 01:28:30 11° W 01:29:31 10° WSW
MINOTAUR 4 R/B 4.2 01:26:32 15° SSE 01:29:20 69° ENE 01:32:52 10° N
NOSS 2-2 (D) 2.9 01:30:21 29° SSW 01:31:59 77° SE 01:35:41 10° NE
NPP 3.6 01:26:40 10° NNE 01:32:05 84° WNW 01:35:57 20° SSW
ADEOS II 2.5 01:27:20 10° NNE 01:32:33 61° ESE 01:36:49 15° S
USA 306 2.8 01:32:05 23° SW 01:34:40 77° SE 01:38:55 10° ENE
Cosmos 921 Rocket 3.4 01:32:38 23° SW 01:34:59 50° WNW 01:39:05 10° N
Lacrosse 5 rocket 3.4 01:32:15 10° NW 01:35:22 27° NNE 01:38:33 10° E
Meteor 2-3 Rocket 4.0 01:31:29 15° S 01:36:08 65° E 01:41:40 10° NNE
FALCON 9 DEB 3.1 01:33:40 10° WNW 01:37:01 57° SW 01:40:20 10° SE
Cosmos 1943 4.0 01:33:25 16° WSW 01:37:36 41° NW 01:42:57 10° NNE
CZ-2D R/B 2.3 01:34:27 10° N 01:39:36 60° WNW 01:43:15 19° SW
Alouette 2 Rocket 4.5 01:37:25 10° N 01:40:50 41° ENE 01:44:43 10° SE
IDEFIX/ARIANE 42P 3.5 01:41:54 10° NNE 01:46:56 44° E 01:51:53 10° S
Cosmos 2151 3.0 01:44:56 20° SSW 01:47:43 67° W 01:51:55 10° N
EXPRESS MD2 4.4 01:41:37 10° WSW 01:51:11 90° SSE 01:55:38 10° ENE
AQUA 3.9 01:46:57 10° N 01:51:42 66° WNW 01:55:17 17° SSW
Cosmos 1076 Rocket 4.4 01:49:45 18° SW 01:52:17 34° WNW 01:56:12 10° N
Cosmos 1437 3.9 01:53:06 10° NW 01:55:16 20° W 01:55:51 19° WSW
Meteor 1-26 Rocket 4.4 01:49:49 10° NNW 01:55:41 88° W 02:01:41 10° S
Cosmos 1242 Rocket 4.4 01:56:33 10° NW 01:58:53 17° W 02:00:05 14° WSW
DELTA 2 R/B (1) 4.1 01:57:41 11° WSW 02:02:38 40° S 02:07:46 10° ESE
Cosmos 2221 4.5 02:01:06 10° NW 02:03:23 14° W 02:05:13 11° WSW
X-37B 0.9 02:01:27 10° W 02:04:30 43° SSW 02:07:32 10° ESE
CBERS-1 4.2 02:01:08 10° NNE 02:06:17 74° ESE 02:11:25 10° S
IRS-1D 3.5 02:01:21 10° NNE 02:06:31 89° WNW 02:11:14 12° SSW
BREEZE-M DEB (TANK) 1.6 02:04:21 10° WNW 02:06:42 68° NNE 02:09:16 10° E
Cosmos 1812 3.6 02:06:28 10° N 02:10:13 49° ENE 02:13:56 10° SSE
Cosmos 1553 Rocket 4.0 02:04:14 10° NNW 02:10:32 70° W 02:16:40 10° S
NOSS 2-2 (E) 4.2 02:08:02 12° WSW 02:10:59 36° NW 02:14:40 10° NNE
Cosmos 2292 Rocket 2.9 02:09:53 17° SSW 02:11:57 52° W 02:14:53 10° N
FALCON 9 DEB 2.9 02:12:51 10° WNW 02:16:00 81° NNE 02:19:06 10° ESE
S3M 4.0 02:10:26 10° N 02:16:37 90° W 02:22:50 10° S
GPS 2-04 Rocket1 4.4 02:15:43 14° SSW 02:17:02 16° S 02:19:28 10° SE
Cosmos 1782 2.8 02:13:09 10° NNW 02:17:08 63° W 02:21:05 10° S
USA 281 3.2 02:10:54 10° SSE 02:17:29 88° WSW 02:24:07 10° NNW
Meteor 2-14 Rocket 4.5 02:11:46 10° S 02:17:52 82° W 02:24:03 10° N
USA 307 3.2 02:14:13 10° WSW 02:18:26 64° NNW 02:22:40 10° NE
Cosmos 1271 Rocket 2.6 02:15:20 10° N 02:19:06 90° ENE 02:22:51 10° S
MSX 4.2 02:13:37 10° NNE 02:19:21 63° ESE 02:25:03 10° S
NOSS 2-2 (C) 4.3 02:21:29 10° WSW 02:24:41 34° NW 02:28:14 10° NNE
CZ-4C R/B 2.9 02:21:32 10° S 02:24:59 73° WSW 02:28:27 10° NNW
Helios 1B rocket 4.0 02:23:53 10° NNW 02:27:05 22° WNW 02:30:17 10° WSW
ERBS 2.4 02:24:39 13° SW 02:27:23 59° SE 02:30:35 10° ENE
Cosmos 1328 Rocket 3.5 02:26:47 10° NNW 02:31:09 69° W 02:35:29 10° S
NOSS 3-2 (A) 4.3 02:24:28 10° NW 02:31:58 81° NE 02:40:30 10° SE
FALCON 9 DEB 2.9 02:29:52 10° WNW 02:32:54 54° SW 02:35:54 10° SE
ATLAS 5 CENTAUR R/B 2.6 02:29:57 10° WSW 02:33:42 36° NW 02:37:56 10° NNE
USA 308 3.5 02:30:15 10° WSW 02:34:25 53° NNW 02:38:36 10° NE
SeaSat 1 2.7 02:30:47 10° NNE 02:35:44 71° ESE 02:40:39 10° SSW
Spot 1 4.4 02:30:42 10° S 02:35:45 70° WSW 02:40:38 10° NNW
FALCON 9 DEB 2.8 02:36:42 10° WNW 02:39:48 61° SSW 02:42:51 10° SE
Meteor 2-6 Rocket 4.3 02:34:09 10° NNW 02:40:05 84° W 02:45:50 10° S
ADEOS Rocket 3.9 02:34:05 10° SSW 02:40:46 38° W 02:46:56 10° NNW
FALCON 9 DEB 3.1 02:40:10 10° WNW 02:43:09 46° SW 02:46:08 10° SE
Cosmos 1980 Rocket 4.3 02:40:13 10° NNW 02:45:13 32° NE 02:50:12 10° ESE
Cosmos 1833 Rocket 3.6 02:42:29 10° S 02:47:51 48° ESE 02:53:16 10° NE
Cosmos 2228 Rocket 4.4 02:44:52 10° N 02:49:14 44° ENE 02:53:29 10° SSE
SL-16 R/B 4.1 02:45:43 10° SW 02:49:31 17° W 02:53:20 10° NW
IRS-P3 4.2 02:45:48 10° NNE 02:51:09 79° WNW 02:56:27 10° SSW
Tianhe-1 3.4 02:50:37 10° S 02:52:16 14° SSE 02:53:56 10° SE
USA 305 3.9 02:48:16 10° W 02:52:21 43° NNW 02:56:26 10° NE
Meteor 1-27 Rocket 4.3 02:47:46 10° N 02:53:19 62° ENE 02:58:46 10° SSE
Lacrosse 4 Rocket 3.3 02:51:48 10° W 02:53:21 12° WSW 02:54:53 10° SW
Cosmos 1125 Rocket 4.3 02:48:55 10° NW 02:53:31 31° W 02:58:08 10° SSW
Cosmos 1151 Rocket 3.9 02:50:55 10° NNW 02:54:38 30° W 02:58:20 10° SSW
Cosmos 883 Rocket 4.5 02:48:55 10° NNW 02:55:02 72° W 03:01:06 10° S
Cosmos 2266 Rocket 4.1 02:50:47 10° SSW 02:56:50 64° WNW 03:02:52 10° N
